Baton Rouge, LA

5:47 PM CDT on October 22, 2019 (GMT -0500)
Baton Rouge Metro-Ryan

Weather History for KBTR - August, 2019

Change the Weather History Date:

Sunday, August 11, 2019

  Actual Average Record
Temperature  
Mean Temperature 87 °F 83 °F  
Max Temperature 94 °F 93 °F 104 °F (2007)
Min Temperature 80 °F 74 °F 64 °F (1990)
Degree Days  
Heating Degree Days 0 0  
Month to date heating degree days 0 0  
Since 1 June heating degree days 0 0  
Since 1 July heating degree days 0 0  
Cooling Degree Days 22 18  
Month to date cooling degree days 222 198  
Year to date cooling degree days 1956 1803  
Since 1 June cooling degree days 1285 1238  
Growing Degree Days 36 (Base 50)    
Moisture  
Dew Point 75 °F    
Average Humidity 70    
Maximum Humidity 91    
Minimum Humidity 49    
Precipitation  
Precipitation 0.00 in 0.20 in 7.94 in (1987)
Month to date precipitation 0.42 2.12  
Year to date precipitation 41.84 38.01  
Snow  
Snow 0.00 in - - ()
Month to date snowfall 0.0  
Since 1 June snowfall 0.0  
Since 1 July snowfall 0.0  
Snow Depth 0.00 in    
Sea Level Pressure  
Sea Level Pressure 29.98 in    
Wind  
Wind Speed 5 mph (WSW)    
Max Wind Speed 14 mph    
Max Gust Speed 17 mph    
Visibility 10 miles    
Events      
T = Trace of Precipitation, MM = Missing Value Source: NWS Daily Summary

Daily Weather History Graph

Daily Weather History Graph

Search for Another Location

Airport or City:

Astronomy

Aug. 11, 2019 Rise Set
Actual Time 6:28 AM CDT 7:50 PM CDT
Civil Twilight 6:03 AM CDT 8:15 PM CDT
Nautical Twilight 5:32 AM CDT 8:46 PM CDT
Astronomical Twilight 5:00 AM CDT 9:17 PM CDT
Moon 5:20 PM CDT (8/11) 2:58 AM CDT (8/11)
Length of Visible Light 14h 12m
Length of Day
13h 21m
Waxing Gibbous, 87% of the Moon is Illuminated
Aug 11
Waxing Gibbous
Aug 15
Full
Aug 23
Last Quarter
Aug 30
New
Sep 5
First Quarter

Hourly Weather History & Observations

Time (CDT) Temp. Heat Index Dew Point Humidity Pressure Visibility Wind Dir Wind Speed Gust Speed Precip Events Conditions
12:53 AM 82.9 °F 91.8 °F 77.0 °F 82% 29.95 in 10.0 mi West 4.6 mph - N/A   Clear
1:53 AM 82.0 °F 90.2 °F 77.0 °F 85% 29.95 in 10.0 mi Calm Calm - N/A   Clear
2:53 AM 81.0 °F 87.9 °F 77.0 °F 88% 29.96 in 10.0 mi SW 5.8 mph - N/A   Clear
3:53 AM 81.0 °F 87.9 °F 77.0 °F 88% 29.97 in 10.0 mi SSW 4.6 mph - N/A   Clear
4:53 AM 81.0 °F 87.9 °F 77.0 °F 88% 29.98 in 10.0 mi West 3.5 mph - N/A   Partly Cloudy
5:53 AM 81.0 °F 87.9 °F 77.0 °F 88% 29.99 in 9.0 mi Calm Calm - N/A   Clear
6:53 AM 80.1 °F 85.8 °F 77.0 °F 90% 30.01 in 10.0 mi Calm Calm - N/A   Clear
7:53 AM 82.9 °F 91.8 °F 77.0 °F 82% 30.02 in 10.0 mi West 8.1 mph - N/A   Clear
8:53 AM 84.9 °F 94.1 °F 75.9 °F 74% 30.04 in 10.0 mi West 11.5 mph - N/A   Mostly Cloudy
9:50 AM 86.0 °F 96.9 °F 77.0 °F 74% 30.05 in 10.0 mi West 9.2 mph - N/A   Mostly Cloudy
9:53 AM 86.0 °F 96.9 °F 77.0 °F 74% 30.05 in 10.0 mi West 9.2 mph - N/A   Mostly Cloudy
11:53 AM 90.0 °F 100.2 °F 75.0 °F 61% 30.04 in 10.0 mi NW 6.9 mph - N/A   Mostly Cloudy
12:53 PM 93.0 °F 103.2 °F 73.9 °F 54% 30.00 in 10.0 mi WNW 5.8 mph - N/A   Clear
1:53 PM 91.9 °F 101.3 °F 73.9 °F 55% 29.98 in 10.0 mi West 9.2 mph - N/A   Partly Cloudy
2:53 PM 93.0 °F 100.7 °F 72.0 °F 50% 29.97 in 10.0 mi SW 10.4 mph - N/A   Partly Cloudy
3:53 PM 93.0 °F 100.7 °F 72.0 °F 50% 29.96 in 10.0 mi SW 9.2 mph - N/A   Clear
4:53 PM 91.9 °F 99.5 °F 72.0 °F 52% 29.95 in 10.0 mi SW 8.1 mph - N/A   Clear
5:53 PM 91.9 °F 99.5 °F 72.0 °F 52% 29.95 in 10.0 mi West 3.5 mph - N/A   Clear
6:53 PM 93.0 °F 101.9 °F 73.0 °F 52% 29.95 in 10.0 mi Calm Calm - N/A   Partly Cloudy
7:53 PM 90.0 °F 100.2 °F 75.0 °F 61% 29.94 in 10.0 mi Calm Calm - N/A   Mostly Cloudy
8:53 PM 82.9 °F 90.8 °F 75.9 °F 79% 29.95 in 10.0 mi ESE 8.1 mph - N/A   Clear
9:53 PM 82.0 °F 89.4 °F 75.9 °F 82% 29.96 in 10.0 mi East 4.6 mph - N/A   Clear
10:53 PM 82.0 °F 89.4 °F 75.9 °F 82% 29.94 in 10.0 mi SE 4.6 mph - N/A   Clear
11:53 PM 82.0 °F 88.6 °F 75.0 °F 79% 29.95 in 10.0 mi South 6.9 mph - N/A   Clear